Wind_Speed
2 2 5 5 8 3 3 4 4 2 2 4 1 4 5 3 3 6 7 7 8 4 4 9 17 17 18 20 20 23 23 23 23 22 21 23 23 22 22 23 23 23 24 24
2 11 5 4 4 4 2 6 5 2 3 4 3 5 4 3 4 6 6 6 6 5 3 9 6 2 4 8 12 14 17 17 17 21 22 16 14 12 11 13 13 13 14 16
3 1 8 5 4 5 4 5 5 3 4 3 5 3 3 2 1 4 7 3 3 6 7 6 15 15 12 11 8 4 1 4 8 9 14 15 15 12 11 12 15 17 17 16
5 4 7 5 6 6 8 6 2 8 8 4 1 3 5 5 5 8 8 8 5 7 7 9 14 18 17 16 14 13 12 12 10 7 5 5 7 7 9 12 13 14 14 14
5 9 7 6 6 8 1 0 6 3 4 3 2 2 2 6 3 5 8 8 8 6 8 8 13 19 23 21 22 19 20 20 18 15 15 13 13 12 12 13 14 15 15 14
1 2 1 2 3 11 8 5 6 4 3 4 6 7 4 5 7 7 8 8 8 9 11 16 17 20 27 26 28 25 27 26 22 21 20 19 17 16 16 18 19 21 21 20
1 2 2 2 6 8 6 7 1 1 3 3 2 5 1 1 12 14 14 12 11 8 7 12 17 18 23 29 29 26 26 25 22 22 20 18 17 16 18 19 20 23 25 26
4 4 5 1 1 5 6 7 3 6 4 2 3 6 3 4 8 18 14 12 9 10 10 10 16 18 19 25 28 27 25 26 26 24 22 20 18 18 17 17 18 19 20 22
7 3 2 1 3 6 4 4 2 4 2 2 3 3 4 3 5 13 14 12 10 10 10 11 19 24 22 26 23 20 19 23 22 21 20 20 21 21 21 20 20 21 22 24
4 3 3 3 1 4 1 11 3 1 5 3 3 4 4 4 6 12 13 14 12 11 10 10 15 16 17 16 18 18 19 17 17 18 18 20 20 21 21 22 23 24 24 25
4 1 1 1 1 4 3 4 3 3 1 3 3 4 4 6 9 15 15 14 13 11 11 9 13 14 15 18 18 18 19 18 18 18 19 19 20 21 21 22 24 26 26 27
2 2 2 1 2 3 1 4 3 3 4 2 1 3 7 5 6 13 16 13 11 11 9 11 14 15 18 16 16 17 18 18 17 17 18 20 20 20 21 22 23 25 27 29
6 1 3 2 2 2 3 5 5 2 2 3 3 3 5 9 12 9 16 13 11 9 8 9 13 15 16 15 15 16 17 19 17 16 17 18 20 22 23 25 27 30 32 33
3 2 4 5 2 3 3 5 6 4 3 3 2 4 3 7 14 12 11 10 8 8 7 6 9 13 13 13 15 15 16 15 13 14 16 20 22 25 27 29 31 32 33 34
3 3 2 2 1 2 1 1 6 2 3 4 2 4 7 10 15 12 12 10 9 8 7 5 5 9 12 13 12 12 11 12 14 16 19 23 26 28 29 31 32 33 33 33
1 3 2 3 3 5 4 12 9 3 7 3 4 3 2 5 7 10 10 10 9 7 6 5 8 9 8 8 7 8 11 14 15 19 23 26 28 29 31 32 32 33 34 37
3 4 2 2 2 1 4 7 13 7 10 11 7 5 9 7 10 10 10 9 9 8 6 6 7 6 5 5 7 9 12 15 19 23 26 28 29 30 31 33 34 38 40 42
4 4 2 1 1 1 2 3 4 9 8 5 4 13 16 14 6 5 5 7 8 7 7 7 6 5 4 6 10 10 14 18 22 25 26 29 30 30 32 33 36 38 40 40
4 3 3 3 2 4 3 4 6 6 6 5 8 7 8 9 6 2 3 3 6 8 10 7 6 6 5 9 11 14 16 19 22 25 26 28 29 29 32 35 36 35 36 37
5 5 3 2 4 6 3 1 3 2 4 8 7 16 17 13 9 4 7 8 12 12 10 8 7 6 6 11 13 14 17 20 23 24 26 27 28 29 31 31 31 33 34 29
3 3 4 2 2 6 4 1 3 5 4 6 10 12 15 5 1 7 13 8 12 12 10 8 7 8 8 10 12 15 17 18 19 23 24 25 25 25 24 27 31 33 30 30
5 4 3 3 2 6 0 1 6 2 4 6 6 6 7 8 8 8 7 10 12 11 7 6 7 8 8 12 13 13 14 17 20 22 22 21 22 21 26 29 31 32 32 30
2 4 3 6 4 2 3 3 2 3 3 3 7 6 8 9 5 7 6 9 9 8 6 5 6 7 7 10 11 11 13 17 19 17 17 20 22 25 27 29 31 32 30 24
3 3 2 2 3 6 6 2 3 4 5 6 6 8 7 7 8 6 6 8 7 4 2 3 4 5 5 7 8 9 11 13 15 16 19 21 23 26 27 27 26 25 23 24
4 4 4 4 6 4 6 6 5 5 6 8 7 5 6 8 6 6 5 9 8 6 4 1 2 3 4 7 8 7 11 13 14 14 17 20 22 24 26 26 24 24 25 21
6 7 5 5 6 4 4 8 7 7 7 8 7 5 6 7 8 10 12 12 9 6 4 3 2 4 4 5 4 5 7 9 12 15 18 20 21 23 24 26 33 26 19 22
Wind_Direction
184 175 202 186 200 115 178 191 177 70 139 149 218 241 266 323 270 203 212 207 225 221 251 228 227 232 235 238 243 242 242 242 241 244 246 249 255 263 270 276 285 294 295 295
145 229 193 157 185 193 182 210 205 82 342 140 160 263 242 279 258 219 217 233 225 129 99 53 73 123 252 260 257 258 254 254 255 253 253 258 268 284 290 302 319 326 323 322
223 284 156 148 151 192 221 220 201 176 141 9 130 257 217 140 84 34 39 1 102 142 105 56 60 64 67 59 50 64 78 238 249 263 261 267 275 288 309 323 327 333 326 322
243 194 176 177 194 159 239 184 131 129 161 205 145 254 232 188 88 55 34 34 49 93 92 77 79 71 67 66 74 76 81 76 70 62 62 55 50 22 1 351 343 342 339 336
194 173 182 194 208 182 195 359 147 155 145 116 229 201 166 163 137 107 70 39 37 39 74 74 78 85 85 81 81 78 78 70 66 64 58 55 50 34 18 10 6 7 9 7
120 306 282 174 152 182 141 87 46 45 77 221 174 198 195 192 158 122 107 88 61 49 77 71 71 79 78 81 80 78 77 70 66 67 62 55 49 37 27 18 11 5 3 5
84 274 268 247 104 147 148 121 98 177 189 236 295 187 295 181 147 139 132 114 107 100 67 76 61 49 67 73 69 63 61 60 59 55 55 49 43 37 30 20 11 4 0 358
171 209 180 88 185 160 165 157 188 181 196 160 4 226 235 234 147 148 129 129 121 114 86 64 73 62 49 62 69 63 57 55 49 50 45 42 37 35 32 23 15 10 2 358
180 231 332 25 340 140 149 147 28 105 43 99 203 289 300 91 119 143 135 116 104 85 79 66 49 57 50 51 50 53 51 51 46 45 44 43 41 37 35 30 24 19 14 9
204 144 20 350 219 50 250 143 122 29 150 207 249 271 229 181 151 150 138 121 118 113 99 96 97 92 98 90 82 74 68 65 58 50 44 39 34 30 27 23 17 15 11 7
162 326 116 241 346 148 133 135 82 107 160 146 150 251 330 187 167 142 133 133 137 127 115 111 104 104 99 84 73 66 59 52 46 39 35 32 29 25 23 21 14 9 4 1
109 138 106 80 261 277 197 169 146 132 208 249 187 260 318 165 108 129 122 118 111 108 113 115 106 94 80 72 61 55 52 48 43 39 34 30 25 20 16 12 5 1 358 358
185 93 74 38 326 49 227 173 181 108 65 198 148 263 17 90 93 106 117 119 117 116 109 101 85 74 67 58 49 46 44 40 35 33 27 22 17 14 7 4 3 1 359 357
91 106 163 178 150 116 193 202 173 150 133 181 219 150 142 126 125 122 118 120 118 112 104 90 77 69 60 47 40 37 39 33 28 26 21 16 12 9 6 1 0 360 358 357
68 117 93 50 285 17 38 228 162 150 57 137 222 132 177 159 145 143 133 126 124 117 102 100 91 67 49 39 32 31 27 23 25 21 18 12 10 7 3 0 359 357 357 357
7 112 96 10 36 164 233 181 208 128 131 313 177 187 122 101 105 136 144 139 135 128 122 110 86 63 53 37 23 13 24 22 23 18 16 11 9 5 2 0 359 356 357 357
127 131 93 228 340 167 309 208 193 182 178 161 184 196 147 142 157 162 154 154 150 142 133 110 93 83 60 30 13 20 22 22 20 16 12 10 7 4 1 360 359 359 358 357
125 95 59 182 359 320 255 299 220 175 178 169 103 150 167 165 123 122 134 143 140 127 112 103 109 122 79 36 23 24 21 22 18 16 10 8 4 1 0 0 1 359 359 357
35 108 85 150 218 303 328 191 157 172 230 199 147 128 120 118 88 49 125 101 109 105 106 114 130 106 62 29 20 21 19 18 16 13 8 6 2 359 2 2 359 358 356 355
29 51 117 119 137 211 254 330 12 1 252 179 162 160 150 148 175 192 145 114 108 120 129 130 112 84 48 24 19 18 17 14 14 7 4 2 1 1 2 358 355 358 358 347
16 15 131 168 200 287 268 338 335 120 247 164 169 163 156 138 74 125 124 113 131 136 125 107 86 65 38 16 15 22 16 14 3 2 1 1 0 2 355 356 2 358 352 347
173 143 188 76 67 279 192 72 167 250 354 113 102 120 110 118 108 118 123 131 138 136 123 82 69 49 29 13 16 20 15 2 360 1 357 356 360 360 360 1 358 355 353 346
288 183 182 187 220 268 273 242 282 174 133 115 116 122 124 129 146 149 145 143 138 126 103 59 50 49 30 14 13 13 4 359 353 350 353 357 1 1 1 359 356 352 350 341
248 170 186 54 210 222 241 271 229 151 127 116 114 129 136 134 142 139 133 136 139 135 91 40 63 65 42 12 12 9 355 346 345 351 358 360 359 357 358 355 354 346 341 336
202 125 182 266 269 316 258 237 181 123 113 105 87 107 129 131 139 141 138 152 168 175 171 157 82 54 20 4 2 351 349 346 347 353 357 357 358 356 351 351 350 343 342 334
188 182 172 217 223 171 223 187 161 148 158 150 129 106 101 141 147 157 166 177 174 172 187 206 318 331 341 348 357 342 340 346 346 352 357 358 354 351 352 350 346 349 336 330
Height
815 816 813 816 812 818 818 819 823 827 827 825 828 829 824 821 822 824 824 823 823 824 827 830 832 835 839 840 842 844 845 847 850 851 852 853 853 855 856 858 858 857 857 855
817 813 810 811 813 818 821 823 822 833 829 826 832 828 822 822 820 822 821 824 823 825 828 831 832 833 836 839 840 842 844 846 849 850 851 851 852 853 854 856 856 855 854 853
814 810 808 811 818 822 820 822 823 823 829 832 830 828 827 820 817 818 823 823 823 825 831 835 835 836 837 838 840 841 842 844 845 847 849 850 851 852 853 853 854 853 853 851
813 809 809 811 814 817 822 818 820 827 825 833 827 835 829 824 827 829 831 832 834 832 834 837 838 839 840 842 843 844 843 844 846 847 848 849 849 851 852 852 852 851 850 848
810 811 812 810 809 813 818 820 820 826 829 831 836 838 824 824 831 832 831 837 839 840 837 840 842 842 842 844 844 847 847 845 847 849 850 850 850 853 852 851 851 850 849 847
811 809 808 807 809 809 820 827 832 837 836 835 829 827 825 826 824 830 836 840 843 846 840 842 846 847 844 849 845 849 846 849 852 850 851 852 852 853 851 849 848 847 847 846
815 814 814 813 815 816 815 823 836 838 837 829 836 834 817 816 816 822 832 839 842 850 851 845 847 852 850 847 846 851 851 853 853 854 853 853 854 852 850 850 849 847 845 844
810 815 813 811 809 808 812 816 824 829 833 837 843 827 820 815 816 819 828 840 844 850 849 850 848 853 856 850 849 852 859 856 854 854 855 854 855 854 853 852 851 849 847 843
814 809 815 815 811 805 820 819 833 836 866 843 832 826 818 820 824 826 832 836 844 846 847 849 852 847 856 848 852 856 859 853 857 861 861 859 857 856 854 853 852 851 848 844
817 810 821 815 813 816 814 823 833 841 840 838 834 832 824 823 826 828 831 837 845 849 855 858 858 863 863 865 864 864 862 865 864 863 861 858 857 856 853 851 852 849 847 845
816 813 822 821 817 814 823 822 833 829 834 834 837 822 819 816 822 823 829 838 849 854 858 864 866 869 870 865 863 862 861 863 863 864 860 858 857 856 853 852 852 849 847 845
812 816 818 819 823 820 817 816 815 823 837 830 822 823 826 819 823 826 835 844 852 856 861 864 865 868 866 868 868 867 864 863 863 863 861 860 858 858 857 855 854 850 846 841
812 817 825 820 820 819 817 813 814 816 819 828 828 827 830 829 831 837 839 849 857 861 864 866 866 866 867 869 869 867 865 863 864 864 864 863 862 859 860 857 851 846 840 836
808 829 818 818 812 819 821 813 809 809 825 823 823 831 835 837 836 843 848 853 857 859 862 865 867 869 870 872 870 869 866 868 869 868 867 865 861 858 855 854 850 843 839 835
813 837 827 824 825 820 814 811 808 812 813 819 819 820 829 832 833 840 847 853 857 861 865 867 869 872 873 873 874 873 873 871 869 868 866 864 858 855 853 852 848 843 837 832
818 824 832 835 822 821 817 823 818 815 820 819 816 819 826 836 840 846 849 852 857 862 866 868 869 871 874 876 877 877 871 870 868 868 863 860 856 855 852 849 845 841 834 827
818 831 828 835 830 823 826 814 813 814 815 814 824 815 828 837 841 845 849 851 855 861 865 866 869 873 874 876 877 875 870 868 865 863 862 858 856 854 852 846 841 834 826 820
822 831 834 842 834 834 806 814 811 807 809 810 815 818 820 828 839 845 849 851 857 860 864 869 872 874 875 877 875 872 868 863 862 860 863 857 856 852 847 843 836 831 824 820
824 825 846 826 839 828 809 809 811 805 810 811 814 824 828 837 842 849 850 850 853 859 863 870 874 873 872 873 872 866 865 863 862 862 861 856 855 850 843 838 834 832 827 822
831 831 830 862 842 842 804 805 806 803 814 811 813 817 825 833 840 845 851 852 858 863 868 872 871 871 871 868 866 866 865 863 861 860 857 854 852 848 843 842 838 832 827 825
860 856 852 878 861 830 813 809 811 821 807 806 808 813 824 830 835 840 848 855 860 865 868 869 868 866 866 867 866 863 862 863 862 859 855 854 854 850 851 843 835 831 829 825
844 844 860 894 873 829 815 812 813 811 811 812 816 822 831 837 842 846 851 855 859 862 864 864 864 865 865 865 863 863 863 863 860 857 858 859 855 852 846 838 834 831 828 824
852 832 845 841 828 816 815 813 812 814 814 816 818 825 831 838 843 848 852 855 857 858 859 861 863 863 864 864 863 863 863 860 862 862 861 857 851 847 843 838 835 832 828 823
832 830 836 830 817 819 815 812 811 810 813 815 819 824 829 835 841 846 850 853 855 857 858 861 863 864 864 865 864 863 862 863 862 860 856 852 849 844 841 839 836 832 828 824
833 832 839 835 817 816 813 811 811 812 814 817 822 826 830 835 841 844 849 853 855 857 861 862 862 862 862 861 860 861 861 860 860 857 854 850 846 844 842 838 835 831 829 827
823 819 821 821 803 802 803 807 810 814 816 819 823 830 834 836 841 845 848 851 853 856 859 859 856 856 858 859 860 861 861 860 857 854 850 847 845 843 840 835 828 828 825 823